Voltar ao catálogo

STARLINK-11481

AtivoComunicaçõesVLEO
NORAD 62230·PAYLOAD·🇺🇸 United States

Lançado Dec 5, 2024 de Vandenberg Space Force Base

Loading…

Próximas Passagens (próximas 24 horas)

TLE

AtualizadoSource: CelesTrak SupGP

Época: Sep 14, 2026, 14:27 UTC

1 62230C 24231N   26257.60256944 -.00012010  00000+0 -98945-4 0  2574
2 62230  53.1575 250.3369 0001170  82.8643  61.8063 15.69712535    18

Acompanhe STARLINK-11481 em tempo real com AllMySat

Download on the App Store